Time,TemperatureF,DewpointF,PressureIn,WindDirection,WindDirectionDegrees,WindSpeedMPH,WindSpeedGustMPH,Humidity,HourlyPrecipIn,Conditions,Clouds,dailyrainin,SolarRadiationWatts/m^2,SoftwareType,DateUTC
2013-02-26 00:04:00,40.6,35.2,30.33,WSW,258,7.0,11.0,81,0.00,,,0.00,0,Wunderground v.1.15,2013-02-26 08:04:00,
2013-02-26 00:09:00,40.6,35.2,30.33,SW,236,7.0,11.0,81,0.00,,,0.00,0,Wunderground v.1.15,2013-02-26 08:09:00,
2013-02-26 00:14:00,40.6,35.5,30.33,WNW,287,5.0,10.0,82,0.00,,,0.00,0,Wunderground v.1.15,2013-02-26 08:14:00,
2013-02-26 00:19:00,40.6,35.5,30.33,West,278,6.0,12.0,82,0.00,,,0.00,0,Wunderground v.1.15,2013-02-26 08:19:00,
2013-02-26 00:24:00,40.6,35.5,30.33,West,262,3.0,10.0,82,0.00,,,0.00,0,Wunderground v.1.15,2013-02-26 08:24:00,
2013-02-26 00:29:00,40.6,35.5,30.33,WSW,242,3.0,10.0,82,0.00,,,0.00,0,Wunderground v.1.15,2013-02-26 08:29:00,
2013-02-26 00:34:00,40.6,35.5,30.33,West,259,2.0,10.0,82,0.00,,,0.00,0,Wunderground v.1.15,2013-02-26 08:34:00,
2013-02-26 00:39:00,40.6,35.5,30.33,SW,232,4.0,10.0,82,0.00,,,0.00,0,Wunderground v.1.15,2013-02-26 08:39:00,
2013-02-26 00:44:00,40.5,35.4,30.33,WSW,239,0.0,8.0,82,0.00,,,0.00,0,Wunderground v.1.15,2013-02-26 08:44:00,
2013-02-26 00:49:00,40.5,35.4,30.34,SW,227,7.0,8.0,82,0.00,,,0.00,0,Wunderground v.1.15,2013-02-26 08:49:00,
2013-02-26 00:54:00,40.5,35.4,30.34,West,259,4.0,7.0,82,0.00,,,0.00,0,Wunderground v.1.15,2013-02-26 08:54:00,
2013-02-26 00:59:00,40.5,35.4,30.34,West,263,3.0,7.0,82,0.00,,,0.00,0,Wunderground v.1.15,2013-02-26 08:59:00,
2013-02-26 01:04:00,40.5,35.4,30.34,SW,225,0.0,5.0,82,0.00,,,0.00,0,Wunderground v.1.15,2013-02-26 09:04:00,
2013-02-26 01:09:00,40.5,35.7,30.34,WSW,248,2.0,5.0,83,0.00,,,0.00,0,Wunderground v.1.15,2013-02-26 09:09:00,
2013-02-26 01:14:00,40.4,35.6,30.34,WSW,247,2.0,4.0,83,0.00,,,0.00,0,Wunderground v.1.15,2013-02-26 09:14:00,
2013-02-26 01:19:00,40.3,35.5,30.34,WSW,257,3.0,7.0,83,0.00,,,0.00,0,Wunderground v.1.15,2013-02-26 09:19:00,
2013-02-26 01:24:00,40.3,35.2,30.34,West,267,5.0,7.0,82,0.00,,,0.00,0,Wunderground v.1.15,2013-02-26 09:24:00,
2013-02-26 01:29:00,40.4,35.3,30.34,SW,232,1.0,7.0,82,0.00,,,0.00,0,Wunderground v.1.15,2013-02-26 09:29:00,
2013-02-26 01:34:00,40.3,35.2,30.34,SW,232,0.0,3.0,82,0.00,,,0.00,0,Wunderground v.1.15,2013-02-26 09:34:00,
2013-02-26 01:39:00,40.2,35.1,30.35,West,273,1.0,4.0,82,0.00,,,0.00,0,Wunderground v.1.15,2013-02-26 09:39:00,
2013-02-26 01:44:00,40.2,35.4,30.35,WNW,287,1.0,5.0,83,0.00,,,0.00,0,Wunderground v.1.15,2013-02-26 09:44:00,
2013-02-26 01:49:00,40.0,35.3,30.35,WNW,287,0.0,5.0,83,0.00,,,0.00,0,Wunderground v.1.15,2013-02-26 09:49:00,
2013-02-26 01:54:00,39.9,34.9,30.35,WNW,286,0.0,3.0,82,0.00,,,0.00,0,Wunderground v.1.15,2013-02-26 09:54:00,
2013-02-26 01:59:00,39.6,34.9,30.35,WNW,286,0.0,3.0,83,0.00,,,0.00,0,Wunderground v.1.15,2013-02-26 09:59:00,
2013-02-26 02:04:00,39.5,34.8,30.35,SW,222,3.0,4.0,83,0.00,,,0.00,0,Wunderground v.1.15,2013-02-26 10:04:00,
2013-02-26 02:09:00,39.6,35.2,30.35,WSW,237,2.0,5.0,84,0.00,,,0.00,0,Wunderground v.1.15,2013-02-26 10:09:00,
2013-02-26 02:14:00,39.5,34.8,30.35,SW,235,2.0,3.0,83,0.00,,,0.00,0,Wunderground v.1.15,2013-02-26 10:14:00,
2013-02-26 02:19:00,39.4,35.0,30.35,SW,225,3.0,6.0,84,0.00,,,0.00,0,Wunderground v.1.15,2013-02-26 10:19:00,
2013-02-26 02:24:00,39.4,35.0,30.35,WSW,240,1.0,4.0,84,0.00,,,0.00,0,Wunderground v.1.15,2013-02-26 10:24:00,
2013-02-26 02:29:00,39.4,35.0,30.35,West,265,4.0,6.0,84,0.00,,,0.00,0,Wunderground v.1.15,2013-02-26 10:29:00,
2013-02-26 02:34:00,39.5,34.8,30.35,WSW,246,4.0,6.0,83,0.00,,,0.00,0,Wunderground v.1.15,2013-02-26 10:34:00,
2013-02-26 02:39:00,39.7,34.7,30.35,West,265,7.0,9.0,82,0.00,,,0.00,0,Wunderground v.1.15,2013-02-26 10:39:00,
2013-02-26 02:44:00,39.8,34.8,30.35,WSW,250,1.0,5.0,82,0.00,,,0.00,0,Wunderground v.1.15,2013-02-26 10:44:00,
2013-02-26 02:49:00,39.9,34.9,30.35,WSW,252,3.0,7.0,82,0.00,,,0.00,0,Wunderground v.1.15,2013-02-26 10:49:00,
2013-02-26 02:54:00,40.0,34.6,30.35,West,275,6.0,8.0,81,0.00,,,0.00,0,Wunderground v.1.15,2013-02-26 10:54:00,
2013-02-26 02:59:00,40.1,34.7,30.35,West,259,1.0,8.0,81,0.00,,,0.00,0,Wunderground v.1.15,2013-02-26 10:59:00,
2013-02-26 03:04:00,40.1,34.7,30.35,SW,228,4.0,5.0,81,0.00,,,0.00,0,Wunderground v.1.15,2013-02-26 11:04:00,
2013-02-26 03:09:00,40.1,34.7,30.35,WSW,246,0.0,6.0,81,0.00,,,0.00,0,Wunderground v.1.15,2013-02-26 11:09:00,
2013-02-26 03:14:00,40.0,34.6,30.35,West,281,11.0,11.0,81,0.00,,,0.00,0,Wunderground v.1.15,2013-02-26 11:14:00,
2013-02-26 03:19:00,40.2,34.8,30.35,West,275,5.0,11.0,81,0.00,,,0.00,0,Wunderground v.1.15,2013-02-26 11:19:00,
2013-02-26 03:24:00,40.4,35.0,30.35,WSW,241,5.0,10.0,81,0.00,,,0.00,0,Wunderground v.1.15,2013-02-26 11:24:00,
2013-02-26 03:29:00,40.5,35.1,30.35,WSW,238,5.0,10.0,81,0.00,,,0.00,0,Wunderground v.1.15,2013-02-26 11:29:00,
2013-02-26 03:34:00,40.5,35.1,30.35,West,265,3.0,8.0,81,0.00,,,0.00,0,Wunderground v.1.15,2013-02-26 11:34:00,
2013-02-26 03:39:00,40.5,35.1,30.35,West,267,5.0,8.0,81,0.00,,,0.00,0,Wunderground v.1.15,2013-02-26 11:39:00,
2013-02-26 03:44:00,40.5,35.1,30.35,WSW,244,4.0,5.0,81,0.00,,,0.00,0,Wunderground v.1.15,2013-02-26 11:44:00,
2013-02-26 03:49:00,40.4,35.0,30.35,SW,232,5.0,9.0,81,0.00,,,0.00,0,Wunderground v.1.15,2013-02-26 11:49:00,
2013-02-26 03:54:00,40.4,35.0,30.35,SW,228,4.0,8.0,81,0.00,,,0.00,0,Wunderground v.1.15,2013-02-26 11:54:00,
2013-02-26 03:59:00,40.4,35.0,30.35,SW,232,3.0,8.0,81,0.00,,,0.00,0,Wunderground v.1.15,2013-02-26 11:59:00,
2013-02-26 04:04:00,40.4,35.0,30.35,WSW,247,0.0,6.0,81,0.00,,,0.00,0,Wunderground v.1.15,2013-02-26 12:04:00,
2013-02-26 04:09:00,40.4,35.3,30.35,SW,215,1.0,6.0,82,0.00,,,0.00,0,Wunderground v.1.15,2013-02-26 12:09:00,
2013-02-26 04:14:00,40.4,35.3,30.35,SSW,202,2.0,6.0,82,0.00,,,0.00,0,Wunderground v.1.15,2013-02-26 12:14:00,
2013-02-26 04:19:00,40.4,35.3,30.35,SW,219,4.0,6.0,82,0.00,,,0.00,0,Wunderground v.1.15,2013-02-26 12:19:00,
2013-02-26 04:24:00,40.4,35.6,30.35,SW,231,6.0,8.0,83,0.00,,,0.00,0,Wunderground v.1.15,2013-02-26 12:24:00,
2013-02-26 04:29:00,40.5,35.7,30.35,SW,235,4.0,8.0,83,0.00,,,0.00,0,Wunderground v.1.15,2013-02-26 12:29:00,
2013-02-26 04:34:00,40.6,35.8,30.35,WSW,258,5.0,8.0,83,0.00,,,0.00,0,Wunderground v.1.15,2013-02-26 12:34:00,
2013-02-26 04:39:00,40.6,35.8,30.35,West,272,3.0,10.0,83,0.00,,,0.00,0,Wunderground v.1.15,2013-02-26 12:39:00,
2013-02-26 04:44:00,40.6,35.8,30.36,WSW,257,7.0,11.0,83,0.00,,,0.00,0,Wunderground v.1.15,2013-02-26 12:44:00,
2013-02-26 04:49:00,40.6,35.8,30.36,WSW,253,4.0,11.0,83,0.00,,,0.00,0,Wunderground v.1.15,2013-02-26 12:49:00,
2013-02-26 04:54:00,40.6,35.8,30.36,WSW,244,5.0,9.0,83,0.00,,,0.00,0,Wunderground v.1.15,2013-02-26 12:54:00,
2013-02-26 04:59:00,40.6,35.8,30.36,West,271,3.0,9.0,83,0.00,,,0.00,0,Wunderground v.1.15,2013-02-26 12:59:00,
2013-02-26 05:04:00,40.6,36.1,30.36,West,277,10.0,10.0,84,0.00,,,0.00,0,Wunderground v.1.15,2013-02-26 13:04:00,
2013-02-26 05:09:00,40.7,36.5,30.36,WSW,250,7.0,13.0,85,0.00,,,0.00,0,Wunderground v.1.15,2013-02-26 13:09:00,
2013-02-26 05:14:00,40.7,36.5,30.36,SW,226,4.0,9.0,85,0.00,,,0.00,0,Wunderground v.1.15,2013-02-26 13:14:00,
2013-02-26 05:19:00,40.8,36.6,30.36,West,274,7.0,12.0,85,0.00,,,0.00,0,Wunderground v.1.15,2013-02-26 13:19:00,
2013-02-26 05:24:00,40.8,36.6,30.36,WNW,299,5.0,7.0,85,0.00,,,0.00,0,Wunderground v.1.15,2013-02-26 13:24:00,
2013-02-26 05:29:00,40.7,36.5,30.36,WSW,244,3.0,7.0,85,0.00,,,0.00,0,Wunderground v.1.15,2013-02-26 13:29:00,
2013-02-26 05:34:00,40.8,36.9,30.36,West,272,6.0,9.0,86,0.00,,,0.00,0,Wunderground v.1.15,2013-02-26 13:34:00,
2013-02-26 05:39:00,40.8,36.6,30.36,WSW,257,6.0,9.0,85,0.00,,,0.00,0,Wunderground v.1.15,2013-02-26 13:39:00,
2013-02-26 05:44:00,40.8,36.6,30.36,West,270,5.0,9.0,85,0.00,,,0.00,0,Wunderground v.1.15,2013-02-26 13:44:00,
2013-02-26 05:49:00,41.0,37.1,30.36,West,271,6.0,9.0,86,0.00,,,0.00,0,Wunderground v.1.15,2013-02-26 13:49:00,
2013-02-26 05:54:00,41.1,36.9,30.36,West,274,7.0,10.0,85,0.00,,,0.00,0,Wunderground v.1.15,2013-02-26 13:54:00,
2013-02-26 05:59:00,41.1,36.9,30.36,SW,218,6.0,10.0,85,0.00,,,0.00,0,Wunderground v.1.15,2013-02-26 13:59:00,
2013-02-26 06:04:00,41.2,37.0,30.36,WSW,244,2.0,7.0,85,0.00,,,0.00,0,Wunderground v.1.15,2013-02-26 14:04:00,
2013-02-26 06:09:00,41.2,37.0,30.36,South,180,3.0,8.0,85,0.00,,,0.00,0,Wunderground v.1.15,2013-02-26 14:09:00,
2013-02-26 06:14:00,41.1,36.9,30.36,South,183,2.0,3.0,85,0.00,,,0.00,0,Wunderground v.1.15,2013-02-26 14:14:00,
2013-02-26 06:19:00,41.2,36.7,30.36,WSW,252,5.0,12.0,84,0.00,,,0.00,0,Wunderground v.1.15,2013-02-26 14:19:00,
2013-02-26 06:24:00,41.3,37.1,30.36,West,271,1.0,5.0,85,0.00,,,0.00,0,Wunderground v.1.15,2013-02-26 14:24:00,
2013-02-26 06:29:00,41.3,36.8,30.36,WSW,252,2.0,5.0,84,0.00,,,0.00,0,Wunderground v.1.15,2013-02-26 14:29:00,
2013-02-26 06:34:00,41.2,36.7,30.36,SSW,213,3.0,3.0,84,0.00,,,0.00,0,Wunderground v.1.15,2013-02-26 14:34:00,
2013-02-26 06:39:00,41.1,36.6,30.36,SSW,209,2.0,6.0,84,0.00,,,0.00,0,Wunderground v.1.15,2013-02-26 14:39:00,
2013-02-26 06:44:00,41.1,36.6,30.36,West,264,5.0,5.0,84,0.00,,,0.00,0,Wunderground v.1.15,2013-02-26 14:44:00,
2013-02-26 06:49:00,41.1,36.6,30.36,SW,236,1.0,5.0,84,0.00,,,0.00,0,Wunderground v.1.15,2013-02-26 14:49:00,
2013-02-26 06:54:00,41.1,36.6,30.36,SSW,203,5.0,5.0,84,0.00,,,0.00,0,Wunderground v.1.15,2013-02-26 14:54:00,
2013-02-26 06:59:00,41.1,36.6,30.36,SW,232,1.0,5.0,84,0.00,,,0.00,0,Wunderground v.1.15,2013-02-26 14:59:00,
2013-02-26 07:04:00,41.2,36.7,30.36,WSW,238,6.0,8.0,84,0.00,,,0.00,0,Wunderground v.1.15,2013-02-26 15:04:00,
2013-02-26 07:09:00,41.4,36.6,30.36,West,260,5.0,10.0,83,0.00,,,0.00,0,Wunderground v.1.15,2013-02-26 15:09:00,
2013-02-26 07:14:00,41.5,36.7,30.36,SW,231,9.0,9.0,83,0.00,,,0.00,0,Wunderground v.1.15,2013-02-26 15:14:00,
2013-02-26 07:19:00,41.6,36.5,30.36,WSW,254,5.0,11.0,82,0.00,,,0.00,12,Wunderground v.1.15,2013-02-26 15:19:00,
2013-02-26 07:24:00,41.8,36.7,30.36,West,268,7.0,11.0,82,0.00,,,0.00,18,Wunderground v.1.15,2013-02-26 15:24:00,
2013-02-26 07:29:00,41.8,36.7,30.36,West,268,8.0,13.0,82,0.00,,,0.00,33,Wunderground v.1.15,2013-02-26 15:29:00,
2013-02-26 07:34:00,41.8,36.4,30.36,WSW,257,6.0,12.0,81,0.00,,,0.00,54,Wunderground v.1.15,2013-02-26 15:34:00,
2013-02-26 07:39:00,42.0,36.6,30.36,West,263,12.0,12.0,81,0.00,,,0.00,81,Wunderground v.1.15,2013-02-26 15:39:00,
2013-02-26 07:44:00,42.1,36.4,30.36,SW,225,5.0,14.0,80,0.00,,,0.00,77,Wunderground v.1.15,2013-02-26 15:44:00,
2013-02-26 07:49:00,42.2,36.2,30.36,West,262,10.0,17.0,79,0.00,,,0.00,67,Wunderground v.1.15,2013-02-26 15:49:00,
2013-02-26 07:54:00,42.3,36.6,30.36,West,266,4.0,14.0,80,0.00,,,0.00,56,Wunderground v.1.15,2013-02-26 15:54:00,
2013-02-26 07:59:00,42.2,36.2,30.36,West,267,5.0,14.0,79,0.00,,,0.00,47,Wunderground v.1.15,2013-02-26 15:59:00,
2013-02-26 08:04:00,42.2,36.2,30.36,SW,236,9.0,15.0,79,0.00,,,0.00,46,Wunderground v.1.15,2013-02-26 16:04:00,
2013-02-26 08:09:00,42.3,36.6,30.36,West,273,5.0,15.0,80,0.00,,,0.00,49,Wunderground v.1.15,2013-02-26 16:09:00,
2013-02-26 08:14:00,42.3,36.3,30.36,SW,221,7.0,11.0,79,0.00,,,0.00,58,Wunderground v.1.15,2013-02-26 16:14:00,
2013-02-26 08:19:00,42.4,36.3,30.36,West,260,7.0,12.0,79,0.00,,,0.00,79,Wunderground v.1.15,2013-02-26 16:19:00,
2013-02-26 08:24:00,42.5,36.4,30.36,WSW,255,10.0,11.0,79,0.00,,,0.00,88,Wunderground v.1.15,2013-02-26 16:24:00,
2013-02-26 08:29:00,42.6,36.5,30.36,WSW,242,7.0,12.0,79,0.00,,,0.00,98,Wunderground v.1.15,2013-02-26 16:29:00,
2013-02-26 08:34:00,42.8,36.4,30.36,WNW,296,13.0,14.0,78,0.00,,,0.00,114,Wunderground v.1.15,2013-02-26 16:34:00,
2013-02-26 08:39:00,42.8,36.4,30.37,West,269,4.0,14.0,78,0.00,,,0.00,93,Wunderground v.1.15,2013-02-26 16:39:00,
2013-02-26 08:44:00,42.7,36.3,30.37,WSW,240,8.0,14.0,78,0.00,,,0.00,62,Wunderground v.1.15,2013-02-26 16:44:00,
2013-02-26 08:49:00,42.7,36.6,30.36,West,272,12.0,14.0,79,0.00,,,0.00,105,Wunderground v.1.15,2013-02-26 16:49:00,
2013-02-26 08:54:00,42.7,36.6,30.36,SW,234,5.0,12.0,79,0.00,,,0.00,149,Wunderground v.1.15,2013-02-26 16:54:00,
2013-02-26 08:59:00,42.9,36.8,30.37,NW,317,5.0,12.0,79,0.00,,,0.00,127,Wunderground v.1.15,2013-02-26 16:59:00,
2013-02-26 09:04:00,43.2,36.8,30.36,West,267,5.0,14.0,78,0.00,,,0.00,297,Wunderground v.1.15,2013-02-26 17:04:00,
2013-02-26 09:09:00,43.8,37.4,30.36,West,275,6.0,14.0,78,0.00,,,0.00,302,Wunderground v.1.15,2013-02-26 17:09:00,
2013-02-26 09:14:00,43.8,36.4,30.36,WSW,248,4.0,16.0,75,0.00,,,0.00,209,Wunderground v.1.15,2013-02-26 17:14:00,
2013-02-26 09:19:00,44.2,36.8,30.36,West,261,8.0,16.0,75,0.00,,,0.00,392,Wunderground v.1.15,2013-02-26 17:19:00,
2013-02-26 09:24:00,44.5,36.7,30.36,West,259,7.0,15.0,74,0.00,,,0.00,258,Wunderground v.1.15,2013-02-26 17:24:00,
2013-02-26 09:29:00,44.6,36.8,30.35,WSW,244,6.0,15.0,74,0.00,,,0.00,239,Wunderground v.1.15,2013-02-26 17:29:00,
2013-02-26 09:34:00,44.7,36.6,30.35,WSW,242,6.0,13.0,73,0.00,,,0.00,274,Wunderground v.1.15,2013-02-26 17:34:00,
2013-02-26 09:39:00,45.2,37.1,30.35,West,263,5.0,13.0,73,0.00,,,0.00,461,Wunderground v.1.15,2013-02-26 17:39:00,
2013-02-26 09:44:00,45.2,36.4,30.34,West,266,7.0,17.0,71,0.00,,,0.00,295,Wunderground v.1.15,2013-02-26 17:44:00,
2013-02-26 09:49:00,45.0,36.5,30.34,West,271,6.0,17.0,72,0.00,,,0.00,176,Wunderground v.1.15,2013-02-26 17:49:00,
2013-02-26 09:54:00,44.9,36.4,30.34,West,265,9.0,12.0,72,0.00,,,0.00,239,Wunderground v.1.15,2013-02-26 17:54:00,
2013-02-26 09:59:00,44.7,35.9,30.34,West,263,11.0,14.0,71,0.00,,,0.00,216,Wunderground v.1.15,2013-02-26 17:59:00,
2013-02-26 10:04:00,44.8,36.0,30.34,NNW,345,7.0,18.0,71,0.00,,,0.00,250,Wunderground v.1.15,2013-02-26 18:04:00,
2013-02-26 10:09:00,44.8,35.6,30.34,WSW,240,12.0,18.0,70,0.00,,,0.00,192,Wunderground v.1.15,2013-02-26 18:09:00,
2013-02-26 10:14:00,44.7,35.5,30.34,West,272,9.0,14.0,70,0.00,,,0.00,176,Wunderground v.1.15,2013-02-26 18:14:00,
2013-02-26 10:19:00,44.7,35.5,30.34,West,279,7.0,14.0,70,0.00,,,0.00,236,Wunderground v.1.15,2013-02-26 18:19:00,
2013-02-26 10:24:00,45.2,36.0,30.34,WSW,254,14.0,16.0,70,0.00,,,0.00,390,Wunderground v.1.15,2013-02-26 18:24:00,
2013-02-26 10:29:00,45.4,35.8,30.33,West,279,8.0,16.0,69,0.00,,,0.00,429,Wunderground v.1.15,2013-02-26 18:29:00,
2013-02-26 10:33:00,45.5,35.9,30.33,West,263,7.0,16.0,69,0.00,,,0.00,350,Wunderground v.1.15,2013-02-26 18:33:00,
2013-02-26 10:38:00,45.6,35.6,30.33,West,275,16.0,16.0,68,0.00,,,0.00,315,Wunderground v.1.15,2013-02-26 18:38:00,
2013-02-26 10:43:00,45.9,35.9,30.33,West,263,8.0,18.0,68,0.00,,,0.00,271,Wunderground v.1.15,2013-02-26 18:43:00,
2013-02-26 10:48:00,45.6,35.6,30.33,West,269,6.0,18.0,68,0.00,,,0.00,295,Wunderground v.1.15,2013-02-26 18:48:00,
2013-02-26 10:53:00,45.9,35.9,30.33,WNW,282,11.0,16.0,68,0.00,,,0.00,244,Wunderground v.1.15,2013-02-26 18:53:00,
2013-02-26 10:58:00,45.8,35.8,30.32,WSW,248,5.0,17.0,68,0.00,,,0.00,232,Wunderground v.1.15,2013-02-26 18:58:00,
2013-02-26 11:04:00,45.6,35.6,30.32,West,271,8.0,12.0,68,0.00,,,0.00,253,Wunderground v.1.15,2013-02-26 19:04:00,
2013-02-26 11:09:00,45.9,35.2,30.32,West,278,8.0,16.0,66,0.00,,,0.00,257,Wunderground v.1.15,2013-02-26 19:09:00,
2013-02-26 11:14:00,46.0,35.3,30.32,West,270,8.0,13.0,66,0.00,,,0.00,225,Wunderground v.1.15,2013-02-26 19:14:00,
2013-02-26 11:19:00,46.0,35.7,30.32,West,276,7.0,13.0,67,0.00,,,0.00,174,Wunderground v.1.15,2013-02-26 19:19:00,
2013-02-26 11:24:00,46.0,35.3,30.31,West,262,6.0,11.0,66,0.00,,,0.00,144,Wunderground v.1.15,2013-02-26 19:24:00,
2013-02-26 11:29:00,46.0,35.3,30.31,West,275,15.0,15.0,66,0.00,,,0.00,155,Wunderground v.1.15,2013-02-26 19:29:00,
2013-02-26 11:34:00,45.8,35.1,30.31,WNW,294,6.0,15.0,66,0.00,,,0.00,146,Wunderground v.1.15,2013-02-26 19:34:00,
2013-02-26 11:39:00,45.8,34.3,30.31,SW,229,10.0,16.0,64,0.00,,,0.00,153,Wunderground v.1.15,2013-02-26 19:39:00,
2013-02-26 11:44:00,46.0,34.1,30.31,WSW,251,8.0,18.0,63,0.00,,,0.00,155,Wunderground v.1.15,2013-02-26 19:44:00,
2013-02-26 11:49:00,46.2,34.7,30.31,WSW,242,9.0,18.0,64,0.00,,,0.00,165,Wunderground v.1.15,2013-02-26 19:49:00,
2013-02-26 11:54:00,46.3,34.8,30.31,West,260,11.0,12.0,64,0.00,,,0.00,174,Wunderground v.1.15,2013-02-26 19:54:00,
2013-02-26 11:59:00,46.5,34.2,30.31,WSW,238,7.0,19.0,62,0.00,,,0.00,178,Wunderground v.1.15,2013-02-26 19:59:00,
2013-02-26 12:04:00,46.4,34.1,30.31,West,281,14.0,17.0,62,0.00,,,0.00,172,Wunderground v.1.15,2013-02-26 20:04:00,
2013-02-26 12:08:00,46.3,34.4,30.31,West,267,10.0,17.0,63,0.00,,,0.00,179,Wunderground v.1.15,2013-02-26 20:08:00,
2013-02-26 12:13:00,46.2,33.9,30.31,SSW,202,8.0,12.0,62,0.00,,,0.00,204,Wunderground v.1.15,2013-02-26 20:13:00,
2013-02-26 12:18:00,46.3,34.8,30.30,West,261,8.0,12.0,64,0.00,,,0.00,221,Wunderground v.1.15,2013-02-26 20:18:00,
2013-02-26 12:23:00,46.7,34.4,30.30,West,273,15.0,17.0,62,0.00,,,0.00,218,Wunderground v.1.15,2013-02-26 20:23:00,
2013-02-26 12:28:00,46.6,33.9,30.30,WNW,284,11.0,18.0,61,0.00,,,0.00,237,Wunderground v.1.15,2013-02-26 20:28:00,
2013-02-26 12:33:00,46.5,33.8,30.30,WSW,244,6.0,18.0,61,0.00,,,0.00,258,Wunderground v.1.15,2013-02-26 20:33:00,
2013-02-26 12:38:00,46.7,34.4,30.30,West,281,6.0,18.0,62,0.00,,,0.00,253,Wunderground v.1.15,2013-02-26 20:38:00,
2013-02-26 12:43:00,46.8,33.6,30.29,SW,223,10.0,14.0,60,0.00,,,0.00,244,Wunderground v.1.15,2013-02-26 20:43:00,
2013-02-26 12:48:00,47.0,33.0,30.29,WSW,250,11.0,17.0,58,0.00,,,0.00,227,Wunderground v.1.15,2013-02-26 20:48:00,
2013-02-26 12:53:00,47.1,33.1,30.29,WSW,252,12.0,15.0,58,0.00,,,0.00,220,Wunderground v.1.15,2013-02-26 20:53:00,
2013-02-26 12:58:00,47.2,33.2,30.29,SW,228,9.0,15.0,58,0.00,,,0.00,218,Wunderground v.1.15,2013-02-26 20:58:00,
2013-02-26 13:03:00,47.2,32.7,30.29,West,267,8.0,17.0,57,0.00,,,0.00,202,Wunderground v.1.15,2013-02-26 21:03:00,
2013-02-26 13:08:00,47.2,33.2,30.29,West,263,6.0,17.0,58,0.00,,,0.00,190,Wunderground v.1.15,2013-02-26 21:08:00,
2013-02-26 13:13:00,47.2,33.2,30.29,WSW,249,9.0,11.0,58,0.00,,,0.00,209,Wunderground v.1.15,2013-02-26 21:13:00,
2013-02-26 13:18:00,47.2,33.6,30.29,West,272,4.0,12.0,59,0.00,,,0.00,202,Wunderground v.1.15,2013-02-26 21:18:00,
2013-02-26 13:23:00,47.3,33.3,30.29,WSW,251,6.0,13.0,58,0.00,,,0.00,220,Wunderground v.1.15,2013-02-26 21:23:00,
2013-02-26 13:28:00,47.2,33.2,30.28,WNW,290,7.0,14.0,58,0.00,,,0.00,241,Wunderground v.1.15,2013-02-26 21:28:00,
2013-02-26 13:33:00,47.2,33.6,30.28,West,271,9.0,11.0,59,0.00,,,0.00,229,Wunderground v.1.15,2013-02-26 21:33:00,
2013-02-26 13:38:00,47.3,33.3,30.27,West,270,11.0,14.0,58,0.00,,,0.00,202,Wunderground v.1.15,2013-02-26 21:38:00,
2013-02-26 13:43:00,47.4,33.8,30.27,SW,229,8.0,9.0,59,0.00,,,0.00,183,Wunderground v.1.15,2013-02-26 21:43:00,
2013-02-26 13:48:00,47.4,32.9,30.27,West,270,6.0,12.0,57,0.00,,,0.00,176,Wunderground v.1.15,2013-02-26 21:48:00,
2013-02-26 13:53:00,47.5,33.4,30.27,West,271,6.0,14.0,58,0.00,,,0.00,135,Wunderground v.1.15,2013-02-26 21:53:00,
2013-02-26 13:58:00,47.4,33.8,30.27,West,261,11.0,14.0,59,0.00,,,0.00,116,Wunderground v.1.15,2013-02-26 21:58:00,
2013-02-26 14:03:00,47.4,33.8,30.27,West,259,9.0,12.0,59,0.00,,,0.00,90,Wunderground v.1.15,2013-02-26 22:03:00,
2013-02-26 14:08:00,47.4,33.4,30.27,West,277,6.0,12.0,58,0.00,,,0.00,95,Wunderground v.1.15,2013-02-26 22:08:00,
2013-02-26 14:13:00,47.4,32.9,30.27,WSW,257,7.0,10.0,57,0.00,,,0.00,109,Wunderground v.1.15,2013-02-26 22:13:00,
2013-02-26 14:18:00,47.4,33.8,30.27,WSW,253,11.0,15.0,59,0.00,,,0.00,113,Wunderground v.1.15,2013-02-26 22:18:00,
2013-02-26 14:23:00,47.5,33.4,30.27,West,269,6.0,13.0,58,0.00,,,0.00,127,Wunderground v.1.15,2013-02-26 22:23:00,
2013-02-26 14:28:00,47.5,33.9,30.26,West,259,6.0,13.0,59,0.00,,,0.00,155,Wunderground v.1.15,2013-02-26 22:28:00,
2013-02-26 14:33:00,47.5,33.0,30.26,WSW,244,5.0,12.0,57,0.00,,,0.00,137,Wunderground v.1.15,2013-02-26 22:33:00,
2013-02-26 14:38:00,47.5,33.4,30.26,West,269,7.0,12.0,58,0.00,,,0.00,130,Wunderground v.1.15,2013-02-26 22:38:00,
2013-02-26 14:43:00,47.6,33.5,30.26,West,263,5.0,10.0,58,0.00,,,0.00,174,Wunderground v.1.15,2013-02-26 22:43:00,
2013-02-26 14:48:00,47.6,33.5,30.26,West,271,7.0,12.0,58,0.00,,,0.00,141,Wunderground v.1.15,2013-02-26 22:48:00,
2013-02-26 14:53:00,47.7,33.6,30.26,West,271,8.0,8.0,58,0.00,,,0.00,134,Wunderground v.1.15,2013-02-26 22:53:00,
2013-02-26 14:58:00,47.7,34.1,30.26,West,271,5.0,11.0,59,0.00,,,0.00,123,Wunderground v.1.15,2013-02-26 22:58:00,
2013-02-26 15:03:00,47.6,33.5,30.26,West,267,7.0,10.0,58,0.00,,,0.00,105,Wunderground v.1.15,2013-02-26 23:03:00,
2013-02-26 15:08:00,47.5,33.4,30.26,SW,234,4.0,12.0,58,0.00,,,0.00,121,Wunderground v.1.15,2013-02-26 23:08:00,
2013-02-26 15:13:00,47.6,34.0,30.26,West,267,7.0,12.0,59,0.00,,,0.00,121,Wunderground v.1.15,2013-02-26 23:13:00,
2013-02-26 15:18:00,47.8,33.3,30.25,West,278,7.0,13.0,57,0.00,,,0.00,98,Wunderground v.1.15,2013-02-26 23:18:00,
2013-02-26 15:23:00,47.8,33.7,30.25,West,274,8.0,12.0,58,0.00,,,0.00,77,Wunderground v.1.15,2013-02-26 23:23:00,
2013-02-26 15:28:00,47.7,33.6,30.26,WSW,258,6.0,12.0,58,0.00,,,0.00,60,Wunderground v.1.15,2013-02-26 23:28:00,
2013-02-26 15:33:00,47.6,33.5,30.25,West,279,10.0,10.0,58,0.00,,,0.00,62,Wunderground v.1.15,2013-02-26 23:33:00,
2013-02-26 15:38:00,47.6,33.5,30.25,West,278,10.0,14.0,58,0.00,,,0.00,65,Wunderground v.1.15,2013-02-26 23:38:00,
2013-02-26 15:43:00,47.7,33.6,30.25,WSW,242,6.0,13.0,58,0.00,,,0.00,63,Wunderground v.1.15,2013-02-26 23:43:00,
2013-02-26 15:48:00,47.8,33.3,30.26,WNW,284,5.0,17.0,57,0.00,,,0.00,63,Wunderground v.1.15,2013-02-26 23:48:00,
2013-02-26 15:53:00,47.7,33.6,30.26,West,274,5.0,12.0,58,0.00,,,0.00,60,Wunderground v.1.15,2013-02-26 23:53:00,
2013-02-26 15:58:00,47.6,33.5,30.25,WSW,254,7.0,12.0,58,0.00,,,0.00,47,Wunderground v.1.15,2013-02-26 23:58:00,
2013-02-26 16:03:00,47.5,33.9,30.25,WSW,246,8.0,16.0,59,0.00,,,0.00,46,Wunderground v.1.15,2013-02-27 00:03:00,
2013-02-26 16:08:00,47.6,34.0,30.25,WSW,252,10.0,16.0,59,0.00,,,0.00,53,Wunderground v.1.15,2013-02-27 00:08:00,
2013-02-26 16:13:00,47.6,34.0,30.25,WSW,240,6.0,14.0,59,0.00,,,0.00,47,Wunderground v.1.15,2013-02-27 00:13:00,
2013-02-26 16:18:00,47.6,34.0,30.24,West,267,10.0,14.0,59,0.00,,,0.00,49,Wunderground v.1.15,2013-02-27 00:18:00,
2013-02-26 16:23:00,47.6,34.4,30.25,West,275,9.0,12.0,60,0.00,,,0.00,56,Wunderground v.1.15,2013-02-27 00:23:00,
2013-02-26 16:28:00,47.6,34.0,30.24,West,270,14.0,14.0,59,0.00,,,0.00,49,Wunderground v.1.15,2013-02-27 00:28:00,
2013-02-26 16:33:00,47.6,34.4,30.25,West,261,11.0,11.0,60,0.00,,,0.00,32,Wunderground v.1.15,2013-02-27 00:33:00,
2013-02-26 16:38:00,47.6,35.2,30.24,WSW,243,7.0,12.0,62,0.00,,,0.00,28,Wunderground v.1.15,2013-02-27 00:38:00,
2013-02-26 16:43:00,47.6,34.8,30.24,WSW,248,9.0,13.0,61,0.00,,,0.00,25,Wunderground v.1.15,2013-02-27 00:43:00,
2013-02-26 16:48:00,47.4,34.2,30.24,WSW,246,12.0,17.0,60,0.00,,,0.00,30,Wunderground v.1.15,2013-02-27 00:48:00,
2013-02-26 16:53:00,47.3,34.9,30.24,SW,227,11.0,16.0,62,0.00,,,0.00,30,Wunderground v.1.15,2013-02-27 00:53:00,
2013-02-26 16:58:00,47.3,34.5,30.24,West,275,9.0,16.0,61,0.00,,,0.00,30,Wunderground v.1.15,2013-02-27 00:58:00,
2013-02-26 17:03:00,47.3,35.3,30.24,SW,223,7.0,11.0,63,0.00,,,0.00,26,Wunderground v.1.15,2013-02-27 01:03:00,
2013-02-26 17:08:00,47.3,35.7,30.24,West,260,3.0,11.0,64,0.00,,,0.00,26,Wunderground v.1.15,2013-02-27 01:08:00,
2013-02-26 17:13:00,47.2,35.2,30.23,WSW,254,7.0,12.0,63,0.00,,,0.00,26,Wunderground v.1.15,2013-02-27 01:13:00,
2013-02-26 17:18:00,47.2,35.6,30.24,WSW,257,9.0,15.0,64,0.00,,,0.00,19,Wunderground v.1.15,2013-02-27 01:18:00,
2013-02-26 17:23:00,47.1,35.1,30.23,WSW,258,7.0,14.0,63,0.00,,,0.00,11,Wunderground v.1.15,2013-02-27 01:23:00,
2013-02-26 17:28:00,47.1,35.1,30.23,West,259,4.0,14.0,63,0.00,,,0.00,7,Wunderground v.1.15,2013-02-27 01:28:00,
2013-02-26 17:33:00,47.1,35.1,30.23,West,263,14.0,15.0,63,0.00,,,0.00,5,Wunderground v.1.15,2013-02-27 01:33:00,
2013-02-26 17:38:00,47.0,35.8,30.23,West,259,10.0,15.0,65,0.00,,,0.00,0,Wunderground v.1.15,2013-02-27 01:38:00,
2013-02-26 17:43:00,47.0,35.4,30.23,SW,215,7.0,11.0,64,0.00,,,0.00,0,Wunderground v.1.15,2013-02-27 01:43:00,
2013-02-26 17:48:00,47.0,35.4,30.23,West,269,8.0,15.0,64,0.00,,,0.00,0,Wunderground v.1.15,2013-02-27 01:48:00,
2013-02-26 17:53:00,47.0,35.4,30.23,West,271,8.0,14.0,64,0.00,,,0.00,0,Wunderground v.1.15,2013-02-27 01:53:00,
2013-02-26 17:58:00,47.0,35.4,30.23,West,279,7.0,14.0,64,0.00,,,0.00,0,Wunderground v.1.15,2013-02-27 01:58:00,
2013-02-26 18:03:00,47.0,35.0,30.23,West,261,10.0,18.0,63,0.00,,,0.00,0,Wunderground v.1.15,2013-02-27 02:03:00,
2013-02-26 18:08:00,47.0,35.0,30.23,West,271,6.0,18.0,63,0.00,,,0.00,0,Wunderground v.1.15,2013-02-27 02:08:00,
2013-02-26 18:13:00,47.0,35.0,30.23,WSW,249,6.0,11.0,63,0.00,,,0.00,0,Wunderground v.1.15,2013-02-27 02:13:00,
2013-02-26 18:18:00,47.0,35.0,30.23,WNW,296,7.0,13.0,63,0.00,,,0.00,0,Wunderground v.1.15,2013-02-27 02:18:00,
2013-02-26 18:23:00,46.9,35.0,30.24,West,264,2.0,13.0,63,0.00,,,0.00,0,Wunderground v.1.15,2013-02-27 02:23:00,
2013-02-26 18:28:00,46.9,35.4,30.23,West,261,2.0,13.0,64,0.00,,,0.00,0,Wunderground v.1.15,2013-02-27 02:28:00,
2013-02-26 18:33:00,46.8,35.6,30.23,WNW,286,5.0,8.0,65,0.00,,,0.00,0,Wunderground v.1.15,2013-02-27 02:33:00,
2013-02-26 18:38:00,46.6,35.5,30.24,WSW,254,2.0,8.0,65,0.00,,,0.00,0,Wunderground v.1.15,2013-02-27 02:38:00,
2013-02-26 18:43:00,46.5,35.4,30.23,West,270,6.0,7.0,65,0.00,,,0.00,0,Wunderground v.1.15,2013-02-27 02:43:00,
2013-02-26 18:48:00,46.4,35.3,30.23,West,273,6.0,7.0,65,0.00,,,0.00,0,Wunderground v.1.15,2013-02-27 02:48:00,
2013-02-26 18:53:00,46.4,35.3,30.23,SW,225,10.0,10.0,65,0.00,,,0.00,0,Wunderground v.1.15,2013-02-27 02:53:00,
2013-02-26 18:58:00,46.5,35.7,30.23,West,269,14.0,14.0,66,0.00,,,0.00,0,Wunderground v.1.15,2013-02-27 02:58:00,
2013-02-26 19:03:00,46.6,35.8,30.23,West,276,7.0,15.0,66,0.00,,,0.00,0,Wunderground v.1.15,2013-02-27 03:03:00,
2013-02-26 19:08:00,46.5,35.4,30.23,WSW,250,8.0,18.0,65,0.00,,,0.00,0,Wunderground v.1.15,2013-02-27 03:08:00,
2013-02-26 19:13:00,46.4,35.7,30.23,WNW,290,6.0,15.0,66,0.00,,,0.00,0,Wunderground v.1.15,2013-02-27 03:13:00,
2013-02-26 19:18:00,46.2,35.8,30.23,WSW,254,12.0,15.0,67,0.00,,,0.00,0,Wunderground v.1.15,2013-02-27 03:18:00,
2013-02-26 19:23:00,45.9,35.6,30.23,West,263,15.0,20.0,67,0.00,,,0.00,0,Wunderground v.1.15,2013-02-27 03:23:00,
2013-02-26 19:28:00,45.6,36.4,30.23,West,272,6.0,20.0,70,0.00,,,0.00,0,Wunderground v.1.15,2013-02-27 03:28:00,
2013-02-26 19:33:00,45.4,35.8,30.23,West,263,9.0,16.0,69,0.00,,,0.00,0,Wunderground v.1.15,2013-02-27 03:33:00,
2013-02-26 19:38:00,45.2,36.0,30.23,West,262,9.0,16.0,70,0.00,,,0.00,0,Wunderground v.1.15,2013-02-27 03:38:00,
2013-02-26 19:43:00,45.2,35.6,30.23,WSW,254,5.0,16.0,69,0.00,,,0.00,0,Wunderground v.1.15,2013-02-27 03:43:00,
2013-02-26 19:48:00,45.2,35.6,30.23,WSW,255,7.0,16.0,69,0.00,,,0.00,0,Wunderground v.1.15,2013-02-27 03:48:00,
2013-02-26 19:53:00,45.3,35.4,30.23,WSW,253,9.0,14.0,68,0.00,,,0.00,0,Wunderground v.1.15,2013-02-27 03:53:00,
2013-02-26 19:58:00,45.4,35.5,30.22,West,269,11.0,14.0,68,0.00,,,0.00,0,Wunderground v.1.15,2013-02-27 03:58:00,
2013-02-26 20:03:00,45.4,35.1,30.22,West,275,6.0,11.0,67,0.00,,,0.00,0,Wunderground v.1.15,2013-02-27 04:03:00,
2013-02-26 20:08:00,45.5,35.5,30.23,SW,217,4.0,11.0,68,0.00,,,0.00,0,Wunderground v.1.15,2013-02-27 04:08:00,
2013-02-26 20:13:00,45.5,35.2,30.23,WSW,238,1.0,14.0,67,0.00,,,0.00,0,Wunderground v.1.15,2013-02-27 04:13:00,
2013-02-26 20:18:00,45.6,35.6,30.23,WSW,250,7.0,18.0,68,0.00,,,0.00,0,Wunderground v.1.15,2013-02-27 04:18:00,
2013-02-26 20:23:00,45.5,35.5,30.23,SW,234,9.0,10.0,68,0.00,,,0.00,0,Wunderground v.1.15,2013-02-27 04:23:00,
2013-02-26 20:28:00,45.5,35.9,30.23,SW,218,10.0,13.0,69,0.00,,,0.00,0,Wunderground v.1.15,2013-02-27 04:28:00,
2013-02-26 20:33:00,45.5,35.9,30.23,West,272,7.0,13.0,69,0.00,,,0.00,0,Wunderground v.1.15,2013-02-27 04:33:00,
2013-02-26 20:38:00,45.6,35.3,30.23,West,279,13.0,17.0,67,0.00,,,0.00,0,Wunderground v.1.15,2013-02-27 04:38:00,
2013-02-26 20:43:00,45.6,35.6,30.23,WSW,255,13.0,14.0,68,0.00,,,0.00,0,Wunderground v.1.15,2013-02-27 04:43:00,
2013-02-26 20:48:00,45.6,35.3,30.23,WSW,253,13.0,16.0,67,0.00,,,0.00,0,Wunderground v.1.15,2013-02-27 04:48:00,
2013-02-26 20:53:00,45.6,35.6,30.23,WSW,239,15.0,17.0,68,0.00,,,0.00,0,Wunderground v.1.15,2013-02-27 04:53:00,
2013-02-26 20:58:00,45.6,36.0,30.23,West,259,9.0,17.0,69,0.00,,,0.00,0,Wunderground v.1.15,2013-02-27 04:58:00,
2013-02-26 21:00:00,45.6,35.6,30.23,SSW,210,11.0,17.0,68,0.00,,,0.00,0,Wunderground v.1.15,2013-02-27 05:00:00,
2013-02-26 21:05:00,45.5,35.5,30.23,West,269,12.0,14.0,68,0.00,,,0.00,0,Wunderground v.1.15,2013-02-27 05:05:00,
2013-02-26 21:10:00,45.4,35.8,30.23,West,274,7.0,9.0,69,0.00,,,0.00,0,Wunderground v.1.15,2013-02-27 05:10:00,
2013-02-26 21:15:00,45.3,36.1,30.23,WSW,257,8.0,13.0,70,0.00,,,0.00,0,Wunderground v.1.15,2013-02-27 05:15:00,
2013-02-26 21:20:00,45.3,36.4,30.23,WSW,250,5.0,7.0,71,0.00,,,0.00,0,Wunderground v.1.15,2013-02-27 05:20:00,
2013-02-26 21:25:00,45.2,36.0,30.23,West,264,3.0,11.0,70,0.00,,,0.00,0,Wunderground v.1.15,2013-02-27 05:25:00,
2013-02-26 21:30:00,45.1,35.9,30.23,WSW,248,10.0,11.0,70,0.00,,,0.00,0,Wunderground v.1.15,2013-02-27 05:30:00,
2013-02-26 21:35:00,45.1,36.3,30.23,West,267,8.0,14.0,71,0.00,,,0.00,0,Wunderground v.1.15,2013-02-27 05:35:00,
2013-02-26 21:40:00,45.1,35.9,30.23,WSW,257,3.0,7.0,70,0.00,,,0.00,0,Wunderground v.1.15,2013-02-27 05:40:00,
2013-02-26 21:45:00,45.1,36.3,30.23,West,273,2.0,7.0,71,0.00,,,0.00,0,Wunderground v.1.15,2013-02-27 05:45:00,
2013-02-26 21:50:00,45.1,35.9,30.22,West,269,6.0,6.0,70,0.00,,,0.00,0,Wunderground v.1.15,2013-02-27 05:50:00,
2013-02-26 21:55:00,45.2,36.4,30.22,West,268,5.0,7.0,71,0.00,,,0.00,0,Wunderground v.1.15,2013-02-27 05:55:00,
2013-02-26 22:00:00,45.2,36.0,30.22,WSW,248,3.0,4.0,70,0.00,,,0.00,0,Wunderground v.1.15,2013-02-27 06:00:00,
2013-02-26 22:05:00,45.1,36.3,30.22,SW,219,2.0,6.0,71,0.00,,,0.00,0,Wunderground v.1.15,2013-02-27 06:05:00,
2013-02-26 22:10:00,45.1,36.6,30.22,SSW,211,1.0,2.0,72,0.00,,,0.00,0,Wunderground v.1.15,2013-02-27 06:10:00,
2013-02-26 22:15:00,44.9,36.4,30.22,WSW,241,2.0,3.0,72,0.00,,,0.00,0,Wunderground v.1.15,2013-02-27 06:15:00,
2013-02-26 22:20:00,44.9,36.4,30.23,WSW,244,0.0,1.0,72,0.00,,,0.00,0,Wunderground v.1.15,2013-02-27 06:20:00,
2013-02-26 22:25:00,44.8,36.7,30.23,WSW,244,2.0,2.0,73,0.00,,,0.00,0,Wunderground v.1.15,2013-02-27 06:25:00,
2013-02-26 22:30:00,44.7,36.6,30.23,WSW,243,3.0,3.0,73,0.00,,,0.00,0,Wunderground v.1.15,2013-02-27 06:30:00,
2013-02-26 22:35:00,44.7,36.6,30.22,SW,235,1.0,4.0,73,0.00,,,0.00,0,Wunderground v.1.15,2013-02-27 06:35:00,
2013-02-26 22:40:00,44.6,37.2,30.22,SW,226,3.0,3.0,75,0.00,,,0.00,0,Wunderground v.1.15,2013-02-27 06:40:00,
2013-02-26 22:45:00,44.5,37.1,30.22,SW,221,2.0,4.0,75,0.00,,,0.00,0,Wunderground v.1.15,2013-02-27 06:45:00,
2013-02-26 22:50:00,44.5,36.7,30.22,SSW,211,9.0,9.0,74,0.00,,,0.00,0,Wunderground v.1.15,2013-02-27 06:50:00,
2013-02-26 22:55:00,44.7,36.6,30.22,West,267,5.0,18.0,73,0.00,,,0.00,0,Wunderground v.1.15,2013-02-27 06:55:00,
2013-02-26 23:00:00,44.9,36.1,30.22,WSW,246,4.0,6.0,71,0.00,,,0.00,0,Wunderground v.1.15,2013-02-27 07:00:00,
2013-02-26 23:05:00,45.0,36.5,30.22,WSW,245,3.0,7.0,72,0.00,,,0.00,0,Wunderground v.1.15,2013-02-27 07:05:00,
2013-02-26 23:10:00,45.1,36.6,30.22,WSW,253,3.0,4.0,72,0.00,,,0.00,0,Wunderground v.1.15,2013-02-27 07:10:00,
2013-02-26 23:15:00,44.9,37.1,30.23,SSW,209,5.0,6.0,74,0.00,,,0.00,0,Wunderground v.1.15,2013-02-27 07:15:00,
2013-02-26 23:20:00,44.8,37.4,30.23,SW,232,3.0,4.0,75,0.00,,,0.00,0,Wunderground v.1.15,2013-02-27 07:20:00,
2013-02-26 23:25:00,44.7,37.3,30.23,West,265,6.0,11.0,75,0.00,,,0.00,0,Wunderground v.1.15,2013-02-27 07:25:00,
2013-02-26 23:30:00,44.6,36.5,30.22,WSW,242,5.0,7.0,73,0.00,,,0.00,0,Wunderground v.1.15,2013-02-27 07:30:00,
2013-02-26 23:35:00,44.5,36.7,30.22,WSW,246,3.0,7.0,74,0.00,,,0.00,0,Wunderground v.1.15,2013-02-27 07:35:00,
2013-02-26 23:40:00,44.5,36.7,30.23,SW,226,3.0,4.0,74,0.00,,,0.00,0,Wunderground v.1.15,2013-02-27 07:40:00,
2013-02-26 23:45:00,44.5,36.7,30.22,West,265,4.0,5.0,74,0.00,,,0.00,0,Wunderground v.1.15,2013-02-27 07:45:00,
2013-02-26 23:50:00,44.5,36.7,30.23,West,259,2.0,3.0,74,0.00,,,0.00,0,Wunderground v.1.15,2013-02-27 07:50:00,
2013-02-26 23:55:00,44.5,37.4,30.23,WSW,251,2.0,4.0,76,0.00,,,0.01,0,Wunderground v.1.15,2013-02-27 07:55:00,